Vancouver, British Columbia

3:23 AM PST on December 07, 2016 (GMT -0800)
Vancouver International Airport

Weather History for CYVR - May, 2013

Change the Weather History Date:

Saturday, May 4, 2013

  Actual Average Record
Temperature  
Mean Temperature 56 °F -  
Max Temperature 64 °F 56 °F 66 °F (1998)
Min Temperature 49 °F 43 °F 42 °F (1999)
Degree Days  
Heating Degree Days 8    
Growing Degree Days 6 (Base 50)    
Moisture  
Dew Point 49 °F    
Average Humidity 75    
Maximum Humidity 94    
Minimum Humidity 50    
Precipitation  
Precipitation 0.00 in - - ()
Sea Level Pressure  
Sea Level Pressure 30.20 in    
Wind  
Wind Speed 11 mph ()    
Max Wind Speed 20 mph    
Max Gust Speed 21 mph    
Averages and records for this station are not official NWS values.
T = Trace of Precipitation, MM = Missing Value Source: Averaged Metar Reports

Daily Weather History Graph

Daily Weather History Graph

Search for Another Location

Airport or City:

Trip Planner

Search our weather history database for the weather conditions in past years. The results will help you decide how hot, cold, wet, or windy it might be!

Date:

Astronomy

May. 04, 2013 Rise Set
Actual Time 5:45 AM PDT 8:34 PM PDT
Civil Twilight 5:09 AM PDT 9:10 PM PDT
Nautical Twilight 4:22 AM PDT 9:57 PM PDT
Astronomical Twilight 3:26 AM PDT 10:54 PM PDT
Moon 3:14 AM PDT (5/4) 3:12 PM PDT (5/4)
Length of Visible Light 16h 01m
Length of Day
14h 48m
Waning Crescent, 26% of the Moon is Illuminated
May 4
Waning Crescent
May 9
New
May 17
First Quarter
May 24
Full
May 31
Last Quarter

Hourly Weather History & Observations

Time (PDT) Temp. Dew Point Humidity Pressure Visibility Wind Dir Wind Speed Gust Speed Precip Events Conditions
12:00 AM 53.6 °F 46.4 °F 77% 30.28 in 30.0 mi West 5.8 mph - N/A   Clear
1:00 AM 50.0 °F 44.6 °F 82% 30.29 in 30.0 mi WNW 10.4 mph - N/A   Clear
2:00 AM 51.8 °F 48.2 °F 88% 30.28 in 30.0 mi NW 10.4 mph - N/A   Clear
3:00 AM 51.8 °F 48.2 °F 88% 30.28 in 30.0 mi NW 10.4 mph - N/A   Clear
4:00 AM 51.8 °F 46.4 °F 82% 30.27 in 30.0 mi WNW 12.7 mph - N/A   Clear
5:00 AM 50 °F 47 °F 87% 30.28 in 28 mi WNW 12.7 mph - -  
5:00 AM 50.0 °F 48.2 °F 94% 30.28 in 30.0 mi WNW 12.7 mph - N/A   Clear
6:00 AM 51.8 °F 48.2 °F 88% 30.29 in 30.0 mi WNW 15.0 mph - N/A   Clear
7:00 AM 51.8 °F 48.2 °F 88% 30.30 in 30.0 mi NW 12.7 mph - N/A   Partly Cloudy
8:00 AM 53.6 °F 48.2 °F 82% 30.29 in 30.0 mi NW 17.3 mph - N/A   Partly Cloudy
9:00 AM 55.4 °F 50.0 °F 82% 30.29 in 30.0 mi NW 17.3 mph - N/A   Partly Cloudy
10:00 AM 57.2 °F 50.0 °F 77% 30.28 in 30.0 mi NW 17.3 mph - N/A   Partly Cloudy
11:00 AM 58 °F 51 °F 69% 30.27 in 28 mi NW 18.4 mph - -   Clear
11:00 AM 57.2 °F 50.0 °F 77% 30.27 in 30.0 mi NW 19.6 mph - N/A   Partly Cloudy
12:00 PM 59.0 °F 51.8 °F 77% 30.26 in 30.0 mi NW 19.6 mph - N/A   Partly Cloudy
1:00 PM 60.8 °F 50.0 °F 68% 30.23 in 30.0 mi NW 19.6 mph - N/A   Partly Cloudy
2:00 PM 60.8 °F 51.8 °F 72% 30.20 in 30.0 mi NW 18.4 mph - N/A   Partly Cloudy
3:00 PM 60.8 °F 50.0 °F 68% 30.18 in 30.0 mi NW 17.3 mph - N/A   Partly Cloudy
4:00 PM 64.4 °F 50.0 °F 59% 30.15 in 30.0 mi NW 15.0 mph 20.7 mph N/A   Partly Cloudy
5:00 PM 63 °F 49 °F 50% 30.13 in 28 mi NW 15.0 mph - -   Clear
5:00 PM 62.6 °F 50.0 °F 63% 30.13 in 30.0 mi NW 15.0 mph - N/A   Partly Cloudy
6:00 PM 62.6 °F 50.0 °F 63% 30.10 in 30.0 mi NW 12.7 mph - N/A   Scattered Clouds
7:00 PM 62.6 °F 50.0 °F 63% 30.09 in 30.0 mi NW 11.5 mph - N/A   Scattered Clouds
8:00 PM 60.8 °F 48.2 °F 63% 30.06 in 30.0 mi NW 9.2 mph - N/A   Partly Cloudy
9:00 PM 57.2 °F 48.2 °F 72% 30.06 in 30.0 mi NW 9.2 mph - N/A   Partly Cloudy
10:00 PM 53.6 °F 48.2 °F 82% 30.05 in 30.0 mi NW 8.1 mph - N/A   Partly Cloudy
11:00 PM 55 °F 49 °F 72% 30.04 in 28 mi NW 9.2 mph - -   Clear
11:00 PM 55.4 °F 48.2 °F 77% 30.04 in 30.0 mi NW 9.2 mph - N/A   Partly Cloudy